Change the Weather History Date:

Thursday, May 23, 2013

  Actual Average Record
Temperature  
Mean Temperature 64 °F -  
Max Temperature 69 °F 82 °F 95 °F (2004)
Min Temperature 59 °F 59 °F 49 °F (1962)
Degree Days  
Heating Degree Days 2    
Growing Degree Days 14 (Base 50)    
Moisture  
Dew Point 61 °F    
Average Humidity 94    
Maximum Humidity 100    
Minimum Humidity 82    
Precipitation  
Precipitation 0.02 in - - ()
Sea Level Pressure  
Sea Level Pressure 30.05 in    
Wind  
Wind Speed - (North)    
Max Wind Speed -    
Max Gust Speed -    
Visibility 10 miles    
Events Rain , Thunderstorm    
Averages and records for this station are not official NWS values.
T = Trace of Precipitation, MM = Missing Value Source: NWS Daily Summary

Daily Weather History Graph

Daily Weather History Graph

Search for Another Location

Airport or City:

Trip Planner

Search our weather history database for the weather conditions in past years. The results will help you decide how hot, cold, wet, or windy it might be!

Date:

Astronomy

May. 23, 2013 Rise Set
Actual Time 6:22 AM CDT 8:38 PM CDT
Civil Twilight 5:53 AM CDT 9:07 PM CDT
Nautical Twilight 5:17 AM CDT 9:43 PM CDT
Astronomical Twilight 4:39 AM CDT 10:22 PM CDT
Moon 7:15 PM CDT (5/23) 5:05 AM CDT (5/23)
Length of Visible Light 15h 14m
Length of Day
14h 16m
Waxing Gibbous, 97% of the Moon is Illuminated
May 23
Waxing Gibbous
May 24
Full
May 31
Last Quarter
Jun 8
New
Jun 16
First Quarter

Hourly Weather History & Observations

Time (CDT) Temp. Dew Point Humidity Pressure Visibility Wind Dir Wind Speed Gust Speed Precip Events Conditions
12:15 AM 64.4 °F 59.7 °F 85% 29.93 in 10.0 mi North - - N/A   Clear
12:35 AM 63.9 °F 59.4 °F 85% 29.94 in 10.0 mi North - - N/A   Clear
12:55 AM 62.6 °F 59.2 °F 89% 29.94 in 10.0 mi North - - N/A   Clear
1:15 AM 62.8 °F 59.0 °F 87% 29.94 in 10.0 mi North - - N/A   Clear
1:35 AM 62.6 °F 59.4 °F 89% 29.95 in 10.0 mi North - - N/A   Clear
1:55 AM 62.1 °F 59.5 °F 91% 29.95 in 10.0 mi North - - N/A   Clear
2:15 AM 62.1 °F 59.7 °F 92% 29.95 in 10.0 mi North - - N/A   Clear
2:35 AM 62.1 °F 59.5 °F 91% 29.96 in 10.0 mi North - - N/A   Clear
2:55 AM 61.3 °F 59.2 °F 93% 29.96 in 10.0 mi North - - N/A   Clear
3:15 AM 60.6 °F 58.8 °F 94% 29.97 in 10.0 mi North - - N/A   Clear
3:35 AM 62.6 °F 59.7 °F 90% 29.96 in 10.0 mi North - - N/A   Clear
3:55 AM 61.2 °F 61.0 °F 99% 29.96 in 10.0 mi North - - N/A   Scattered Clouds
4:15 AM 62.8 °F 60.8 °F 93% 29.98 in 7.0 mi North - - 0.01 in Rain Rain
4:35 AM 63.0 °F 61.7 °F 96% 29.99 in 10.0 mi North - - 0.02 in Rain , Thunderstorm Light Thunderstorms and Rain
4:55 AM 64.4 °F 60.8 °F 88% 29.99 in 10.0 mi North - - 0.02 in Rain , Thunderstorm Light Thunderstorms and Rain
5:15 AM 64.2 °F 60.8 °F 89% 29.99 in 10.0 mi North - - N/A Thunderstorm Thunderstorm
5:35 AM 63.3 °F 61.7 °F 94% 29.98 in 10.0 mi North - - N/A Thunderstorm Thunderstorm
5:55 AM 64.2 °F 61.7 °F 91% 29.96 in 10.0 mi North - - N/A   Overcast
6:15 AM 66.0 °F 61.7 °F 86% 29.97 in 10.0 mi North - - N/A Rain , Thunderstorm Light Thunderstorms and Rain
6:35 AM 64.0 °F 62.1 °F 93% 30.00 in 10.0 mi North - - N/A Thunderstorm Unknown
6:55 AM 64.0 °F 63.5 °F 98% 29.98 in 10.0 mi North - - N/A Thunderstorm Thunderstorm
7:15 AM 64.4 °F 64.4 °F 100% 29.99 in 10.0 mi North - - N/A   Overcast
7:35 AM 63.5 °F 63.5 °F 100% 30.00 in 10.0 mi North - - N/A   Overcast
7:55 AM 63.1 °F 63.1 °F 100% 30.02 in 10.0 mi North - - N/A   Overcast
8:15 AM 63.7 °F 63.7 °F 100% 30.03 in 10.0 mi North - - N/A   Overcast
8:35 AM 63.1 °F 63.1 °F 100% 30.04 in 10.0 mi North - - N/A   Overcast
8:55 AM 63.5 °F 63.5 °F 100% 30.05 in 10.0 mi North - - N/A   Overcast
9:15 AM 63.5 °F 63.5 °F 100% 30.06 in 10.0 mi North - - N/A   Overcast
9:35 AM 63.7 °F 63.3 °F 99% 30.06 in 10.0 mi North - - N/A   Overcast
9:55 AM 63.5 °F 63.0 °F 98% 30.07 in 10.0 mi North - - N/A   Overcast
10:15 AM 63.0 °F 63.0 °F 100% 30.09 in 10.0 mi North - - N/A   Overcast
10:35 AM 62.6 °F 62.6 °F 100% 30.09 in 10.0 mi North - - N/A   Overcast
10:55 AM 61.5 °F 61.5 °F 100% 30.10 in 10.0 mi North - - N/A   Overcast
11:15 AM 61.5 °F 61.5 °F 100% 30.09 in 10.0 mi North - - N/A   Overcast
11:35 AM 61.7 °F 61.7 °F 100% 30.11 in 10.0 mi North - - N/A   Overcast
11:55 AM 62.8 °F 62.8 °F 100% 30.10 in 10.0 mi North - - N/A   Overcast
12:15 PM 62.2 °F 62.2 °F 100% 30.10 in 10.0 mi North - - N/A   Overcast
12:35 PM 61.9 °F 61.9 °F 100% 30.11 in 10.0 mi North - - N/A   Overcast
12:55 PM 62.4 °F 62.2 °F 99% 30.10 in 10.0 mi North - - N/A   Overcast
1:15 PM 61.7 °F 61.7 °F 100% 30.10 in 10.0 mi North - - N/A   Overcast
1:35 PM 62.2 °F 62.2 °F 100% 30.10 in 10.0 mi North - - N/A   Overcast
1:55 PM 64.0 °F 63.3 °F 97% 30.11 in 10.0 mi North - - N/A   Overcast
2:15 PM 63.5 °F 62.6 °F 97% 30.11 in 10.0 mi North - - N/A   Overcast
2:35 PM 63.7 °F 63.0 °F 97% 30.10 in 10.0 mi North - - N/A   Overcast
2:55 PM 64.4 °F 62.8 °F 94% 30.10 in 10.0 mi North - - N/A   Overcast
3:15 PM 65.5 °F 61.9 °F 88% 30.09 in 10.0 mi North - - N/A   Overcast
3:35 PM 68.0 °F 62.6 °F 83% 30.07 in 10.0 mi North - - N/A   Overcast
3:55 PM 68.5 °F 63.0 °F 82% 30.07 in 10.0 mi North - - N/A   Overcast
4:15 PM 68.7 °F 63.7 °F 84% 30.08 in 10.0 mi North - - N/A   Overcast
4:35 PM 68.5 °F 63.7 °F 84% 30.09 in 10.0 mi North - - N/A   Overcast
4:55 PM 68.7 °F 63.1 °F 82% 30.07 in 10.0 mi North - - N/A   Scattered Clouds
5:15 PM 67.8 °F 62.2 °F 82% 30.06 in 10.0 mi North - - N/A   Clear
5:35 PM 67.5 °F 62.8 °F 85% 30.09 in 10.0 mi North - - N/A   Scattered Clouds
5:55 PM 66.0 °F 62.6 °F 89% 30.09 in 10.0 mi North - - N/A   Scattered Clouds
6:15 PM 64.9 °F 61.2 °F 88% 30.09 in 10.0 mi North - - N/A   Mostly Cloudy
6:35 PM 64.8 °F 61.2 °F 88% 30.09 in 10.0 mi North - - N/A   Scattered Clouds
6:55 PM 64.6 °F 60.8 °F 88% 30.09 in 10.0 mi North - - N/A   Scattered Clouds
7:15 PM 64.4 °F 61.2 °F 89% 30.09 in 10.0 mi North - - N/A   Clear
7:35 PM 64.0 °F 61.0 °F 90% 30.09 in 10.0 mi North - - N/A   Clear
7:55 PM 63.5 °F 60.6 °F 90% 30.08 in 10.0 mi North - - N/A   Clear
8:15 PM 62.6 °F 60.1 °F 91% 30.08 in 10.0 mi North - - N/A   Clear
8:35 PM 61.9 °F 60.4 °F 95% 30.07 in 10.0 mi North - - N/A   Clear
8:55 PM 61.2 °F 61.2 °F 100% 30.08 in 10.0 mi North - - N/A   Clear
9:15 PM 60.3 °F 60.3 °F 100% 30.08 in 10.0 mi North - - N/A   Clear
9:35 PM 60.3 °F 60.3 °F 100% 30.09 in 10.0 mi North - - N/A   Clear
9:55 PM 60.3 °F 60.3 °F 100% 30.10 in 10.0 mi North - - N/A   Clear
10:15 PM 59.9 °F 59.9 °F 100% 30.10 in 10.0 mi North - - N/A   Clear
10:35 PM 59.9 °F 59.9 °F 100% 30.11 in 10.0 mi North - - N/A   Clear
10:55 PM 59.7 °F 59.7 °F 100% 30.13 in 10.0 mi North - - N/A   Clear
11:15 PM 59.5 °F 59.5 °F 100% 30.14 in 10.0 mi North - - N/A   Clear
11:35 PM 59.0 °F 59.0 °F 100% 30.14 in 10.0 mi North - - N/A   Clear
11:55 PM 59.0 °F 59.0 °F 100% 30.14 in 10.0 mi North - - N/A   Scattered Clouds